Previsão horária em Juatuba

Hoje, 22 Junho, Terça-feira

Tempo Temperatura Precipitação Vento Pressão Humidade
00:00 +19°C° 0 mm 1 m/s 701 mmHg 62%
01:00 +18°C° 0 mm 1 m/s 701 mmHg 64%
02:00 +18°C° 0 mm 1 m/s 701 mmHg 66%
03:00 +16°C° 0 mm 1 m/s 701 mmHg 68%
04:00 +16°C° 0 mm 1 m/s 701 mmHg 70%
05:00 +16°C° 0 mm 1 m/s 701 mmHg 71%
06:00 +15°C° 0 mm 1 m/s 701 mmHg 73%
07:00 +19°C° 0 mm 1 m/s 702 mmHg 65%
08:00 +22°C° 0 mm 1 m/s 703 mmHg 56%
09:00 +24°C° 0 mm 1 m/s 703 mmHg 48%
10:00 +26°C° 0 mm 1 m/s 703 mmHg 43%
11:00 +28°C° 0 mm 1 m/s 703 mmHg 38%
12:00 +30°C° 0 mm 1 m/s 703 mmHg 33%
13:00 +30°C° 0 mm 1 m/s 702 mmHg 32%
14:00 +30°C° 0 mm 2 m/s 702 mmHg 32%
15:00 +31°C° 0 mm 2 m/s 701 mmHg 31%
16:00 +29°C° 0 mm 2 m/s 701 mmHg 36%
17:00 +27°C° 0 mm 2 m/s 701 mmHg 40%
18:00 +25°C° 0 mm 1 m/s 701 mmHg 45%
19:00 +24°C° 0 mm 2 m/s 701 mmHg 51%
20:00 +21°C° 0 mm 2 m/s 701 mmHg 58%
21:00 +20°C° 0 mm 2 m/s 702 mmHg 64%
22:00 +19°C° 0 mm 2 m/s 702 mmHg 68%
23:00 +18°C° 0 mm 2 m/s 702 mmHg 73%

Amanhã, 23 Junho, Quarta-feira

Tempo Temperatura Precipitação Vento Pressão Humidade
00:00 +19°C° 0 mm 1 m/s 702 mmHg 77%
01:00 +18°C° 0 mm 1 m/s 702 mmHg 79%
02:00 +18°C° 0 mm 1 m/s 701 mmHg 80%
03:00 +18°C° 0 mm 1 m/s 701 mmHg 82%
04:00 +16°C° 0 mm 1 m/s 702 mmHg 85%
05:00 +16°C° 0 mm 2 m/s 702 mmHg 88%
06:00 +15°C° 0 mm 2 m/s 702 mmHg 91%
07:00 +17°C° 0 mm 2 m/s 703 mmHg 81%
08:00 +19°C° 0 mm 2 m/s 703 mmHg 72%
09:00 +21°C° 0 mm 2 m/s 704 mmHg 62%
10:00 +24°C° 0 mm 2 m/s 704 mmHg 56%
11:00 +26°C° 0 mm 2 m/s 704 mmHg 49%
12:00 +28°C° 0 mm 2 m/s 703 mmHg 43%
13:00 +28°C° 0 mm 2 m/s 703 mmHg 41%
14:00 +28°C° 0 mm 2 m/s 702 mmHg 40%
15:00 +28°C° 0 mm 2 m/s 702 mmHg 39%
16:00 +26°C° 0 mm 3 m/s 702 mmHg 46%
17:00 +24°C° 0 mm 3 m/s 702 mmHg 54%
18:00 +21°C° 0 mm 4 m/s 702 mmHg 61%
19:00 +20°C° 0 mm 3 m/s 702 mmHg 68%
20:00 +18°C° 0 mm 3 m/s 703 mmHg 74%
21:00 +17°C° 0 mm 2 m/s 703 mmHg 80%
22:00 +16°C° 0 mm 2 m/s 703 mmHg 82%
23:00 +16°C° 0 mm 2 m/s 703 mmHg 83%

Depois de amanhã, 24 Junho, Quinta-feira

Tempo Temperatura Precipitação Vento Pressão Humidade
00:00 +15°C° 0 mm 2 m/s 703 mmHg 85%
01:00 +15°C° 0 mm 2 m/s 702 mmHg 86%
02:00 +14°C° 0 mm 2 m/s 702 mmHg 86%
03:00 +14°C° 0 mm 1 m/s 701 mmHg 87%
04:00 +14°C° 0 mm 1 m/s 702 mmHg 87%
05:00 +13°C° 0 mm 1 m/s 702 mmHg 87%
06:00 +13°C° 0 mm 1 m/s 702 mmHg 87%
07:00 +16°C° 0 mm 2 m/s 702 mmHg 77%
08:00 +18°C° 0 mm 2 m/s 703 mmHg 66%
09:00 +20°C° 0 mm 2 m/s 703 mmHg 56%
10:00 +23°C° 0 mm 2 m/s 703 mmHg 50%
11:00 +25°C° 0 mm 2 m/s 703 mmHg 45%
12:00 +27°C° 0 mm 2 m/s 702 mmHg 39%
13:00 +28°C° 0 mm 2 m/s 702 mmHg 37%
14:00 +28°C° 0 mm 2 m/s 701 mmHg 35%
15:00 +29°C° 0 mm 1 m/s 701 mmHg 33%
16:00 +27°C° 0 mm 1 m/s 701 mmHg 38%
17:00 +24°C° 0 mm 1 m/s 700 mmHg 44%
18:00 +22°C° 0 mm 1 m/s 700 mmHg 50%
19:00 +21°C° 0 mm 1 m/s 701 mmHg 55%
20:00 +20°C° 0 mm 1 m/s 701 mmHg 60%
21:00 +19°C° 0 mm 1 m/s 701 mmHg 65%
22:00 +18°C° 0 mm 1 m/s 701 mmHg 69%
23:00 +16°C° 0 mm 1 m/s 701 mmHg 73%

25 Junho, Sexta-feira

Tempo Temperatura Precipitação Vento Pressão Humidade
00:00 +16°C° 0 mm 1 m/s 701 mmHg 76%
01:00 +15°C° 0 mm 1 m/s 700 mmHg 79%
02:00 +15°C° 0 mm 1 m/s 700 mmHg 82%
03:00 +14°C° 0 mm 1 m/s 700 mmHg 85%
04:00 +14°C° 0 mm 1 m/s 700 mmHg 85%
05:00 +14°C° 0 mm 1 m/s 700 mmHg 86%
06:00 +13°C° 0 mm 0 m/s 700 mmHg 87%
07:00 +16°C° 0 mm 1 m/s 701 mmHg 76%
08:00 +20°C° 0 mm 1 m/s 702 mmHg 66%
09:00 +22°C° 0 mm 1 m/s 702 mmHg 55%
10:00 +24°C° 0 mm 1 m/s 702 mmHg 49%
11:00 +27°C° 0 mm 1 m/s 702 mmHg 42%
12:00 +29°C° 0 mm 1 m/s 702 mmHg 35%
13:00 +29°C° 0 mm 1 m/s 701 mmHg 34%
14:00 +30°C° 0 mm 1 m/s 700 mmHg 32%
15:00 +30°C° 0 mm 1 m/s 700 mmHg 30%
16:00 +28°C° 0 mm 1 m/s 700 mmHg 36%
17:00 +25°C° 0 mm 1 m/s 700 mmHg 42%
18:00 +23°C° 0 mm 1 m/s 699 mmHg 48%
19:00 +22°C° 0 mm 1 m/s 700 mmHg 52%
20:00 +21°C° 0 mm 1 m/s 700 mmHg 55%
21:00 +20°C° 0 mm 1 m/s 700 mmHg 59%
22:00 +19°C° 0 mm 1 m/s 700 mmHg 63%
23:00 +19°C° 0 mm 1 m/s 700 mmHg 66%

26 Junho, Sábado

Tempo Temperatura Precipitação Vento Pressão Humidade
00:00 +18°C° 0 mm 1 m/s 700 mmHg 69%
01:00 +18°C° 0 mm 1 m/s 700 mmHg 72%
02:00 +16°C° 0 mm 1 m/s 700 mmHg 74%
03:00 +16°C° 0 mm 1 m/s 700 mmHg 76%
04:00 +16°C° 0 mm 1 m/s 700 mmHg 78%
05:00 +15°C° 0 mm 1 m/s 700 mmHg 79%
06:00 +15°C° 0 mm 1 m/s 700 mmHg 81%
07:00 +19°C° 0 mm 1 m/s 701 mmHg 71%
08:00 +21°C° 0 mm 1 m/s 702 mmHg 61%
09:00 +24°C° 0 mm 1 m/s 703 mmHg 51%
10:00 +26°C° 0 mm 2 m/s 702 mmHg 44%
11:00 +28°C° 0 mm 2 m/s 702 mmHg 37%
12:00 +30°C° 0 mm 3 m/s 702 mmHg 30%
13:00 +31°C° 0 mm 3 m/s 701 mmHg 28%
14:00 +32°C° 0 mm 4 m/s 701 mmHg 26%
15:00 +32°C° 0 mm 4 m/s 700 mmHg 25%
16:00 +28°C° 0 mm 4 m/s 700 mmHg 31%
17:00 +26°C° 0 mm 3 m/s 700 mmHg 38%
18:00 +22°C° 0 mm 3 m/s 700 mmHg 45%
19:00 +20°C° 0 mm 3 m/s 701 mmHg 51%
20:00 +19°C° 0 mm 2 m/s 701 mmHg 57%
21:00 +18°C° 0 mm 2 m/s 701 mmHg 63%
22:00 +17°C° 0 mm 2 m/s 701 mmHg 67%
23:00 +16°C° 0 mm 2 m/s 701 mmHg 71%

27 Junho, Domingo

Tempo Temperatura Precipitação Vento Pressão Humidade
00:00 +15°C° 0 mm 1 m/s 701 mmHg 74%
01:00 +15°C° 0 mm 1 m/s 701 mmHg 76%
02:00 +14°C° 0 mm 1 m/s 700 mmHg 78%
03:00 +14°C° 0 mm 1 m/s 700 mmHg 80%
04:00 +13°C° 0 mm 1 m/s 700 mmHg 82%
05:00 +13°C° 0 mm 1 m/s 700 mmHg 83%
06:00 +13°C° 0 mm 1 m/s 700 mmHg 85%
07:00 +15°C° 0 mm 1 m/s 701 mmHg 73%
08:00 +19°C° 0 mm 1 m/s 702 mmHg 62%
09:00 +21°C° 0 mm 2 m/s 702 mmHg 50%
10:00 +24°C° 0 mm 2 m/s 702 mmHg 41%
11:00 +26°C° 0 mm 2 m/s 702 mmHg 32%
12:00 +28°C° 0 mm 2 m/s 702 mmHg 23%
13:00 +28°C° 0 mm 2 m/s 701 mmHg 21%
14:00 +29°C° 0 mm 2 m/s 701 mmHg 19%
15:00 +29°C° 0 mm 2 m/s 700 mmHg 18%
16:00 +27°C° 0 mm 1 m/s 700 mmHg 22%
17:00 +24°C° 0 mm 1 m/s 700 mmHg 27%
18:00 +21°C° 0 mm 1 m/s 700 mmHg 31%
19:00 +20°C° 0 mm 1 m/s 700 mmHg 37%
20:00 +19°C° 0 mm 1 m/s 700 mmHg 42%
21:00 +18°C° 0 mm 1 m/s 701 mmHg 48%
22:00 +16°C° 0 mm 1 m/s 701 mmHg 52%
23:00 +15°C° 0 mm 1 m/s 701 mmHg 56%
Mostrar mais

Necessitamos do seu Consentimento

A Meteoprog e os seus Fornecedores de Serviços podem armazenar e aceder a dados pessoais como cookies, identificadores do dispositivo ou outras tecnologias semelhantes existentes no seu dispositivo e processar estes dados para personalizar conteúdos e anúncios, assim como funcionalidades nas redes sociais e análise de tráfego.

  • Armazenar e/ou aceder a informações no seu dispositivo

    Os cookies, identificadores do dispositivo ou outras informações podem ser armazenados ou acedidos no seu dispositivo, para os fins acima indicados.

  • Anúncios e conteúdos personalizados, medição de anúncios e conteúdos, dados sobre o público-alvo e desenvolvimento de produtos

    Os anúncios e os conteúdos podem ser personalizados com base num perfil. Podem ser adicionados dados adicionais para uma maior personalização dos anúncios e dos conteúdos. A eficácia dos anúncios e dos conteúdos pode ser medida. Podem ser obtidas informações sobre o público que visualizou os anúncios e os conteúdos. Estes dados podem ser usados para desenvolver ou melhorar sistemas, softwares ou a experiência do utilizador.

Ao clicar em "Eu concordo”, permitirá o uso de cookies, identificadores do dispositivo e web beacons mencionados ou outras tecnologias semelhantes. As configurações do navegador do seu dispositivo podem ser alteradas.

Para certos fins, podem ser invocados interesses legítimos ao invés de consentimento. Pode ler mais informação sobre este assunto na nossa Política de Privacidade e Cookies.